EW7112 Weather Reports


Display with metric or nautical units.
time (UTC)temp
F
wind
direction
speed
MPH
gust
MPH
rain 1hr
in
rain 24hr
in
rain mn
in
humidity
%
barometer
mb
20260906024538 90 107 2.0 7.0 0.00 0.00 0.00 55 990.0
20260906023044 90 105 1.0 7.0 0.00 0.00 0.00 54 989.8
20260906021538 90 105 3.0 7.0 0.00 0.00 0.00 54 989.6
20260906020039 91 118 2.0 7.0 0.00 0.00 0.00 55 989.4
20260906014541 92 118 3.0 12.0 0.00 0.00 0.00 53 989.2
20260906013036 93 141 4.0 10.0 0.00 0.00 0.00 50 988.9
20260906011535 95 77 4.0 14.0 0.00 0.00 0.00 46 988.4
20260906010034 96 130 2.0 4.0 0.00 0.00 0.00 42 988.1
20260906004534 97 101 2.0 5.0 0.00 0.00 0.00 41 988.1
20260906003033 97 118 2.0 5.0 0.00 0.00 0.00 40 988.1
20260906001533 98 101 3.0 10.0 0.00 0.00 0.00 39 988.1
20260906000032 98 110 1.0 9.0 0.00 0.00 0.00 39 988.0
20260905234531 98 80 2.0 5.0 0.00 0.00 0.00 39 987.8
20260905233030 98 155 1.0 6.0 0.00 0.00 0.00 38 987.8
20260905231528 99 125 1.0 6.0 0.00 0.00 0.00 38 987.9
20260905230027 99 105 2.0 7.0 0.00 0.00 0.00 37 987.8
20260905224526 99 158 3.0 5.0 0.00 0.00 0.00 37 987.9
20260905223025 99 98 1.0 6.0 0.00 0.00 0.00 37 987.8
20260905221534 100 150 3.0 6.0 0.00 0.00 0.00 36 988.0
20260905220022 100 360 1.0 6.0 0.00 0.00 0.00 36 988.1
20260905214520 101 82 3.0 7.0 0.00 0.00 0.00 37 988.3
20260905213029 100 203 0.0 5.0 0.00 0.00 0.00 38 988.4
20260905211519 99 1 1.0 5.0 0.00 0.00 0.00 38 988.6
20260905210018 100 118 3.0 8.0 0.00 0.00 0.00 39 988.8
20260905204509 99 44 4.0 8.0 0.00 0.00 0.00 40 989.0
20260905203007 98 260 2.0 6.0 0.00 0.00 0.00 41 989.2
20260905201506 98 207 1.0 6.0 0.00 0.00 0.00 40 989.4
20260905200004 98 86 3.0 8.0 0.00 0.00 0.00 42 989.7
20260905194559 98 58 1.0 6.0 0.00 0.00 0.00 41 989.8
20260905193056 97 105 2.0 6.0 0.00 0.00 0.00 42 990.0
20260905191556 98 243 1.0 9.0 0.00 0.00 0.00 43 990.3
20260905190104 96 132 1.0 6.0 0.00 0.00 0.00 46 990.7
20260905184605 96 312 1.0 8.0 0.00 0.00 0.00 44 990.9
20260905183048 96 155 3.0 8.0 0.00 0.00 0.00 45 991.1
20260905181545 96 98 3.0 8.0 0.00 0.00 0.00 46 991.3
20260905180043 94 252 3.0 6.0 0.00 0.00 0.00 46 991.5
20260905174546 94 81 1.0 7.0 0.00 0.00 0.00 48 991.7
20260905173039 93 79 2.0 7.0 0.00 0.00 0.00 48 991.9
20260905171534 92 281 0.0 5.0 0.00 0.00 0.00 51 992.0
20260905170035 93 1 2.0 6.0 0.00 0.00 0.00 51 992.1
20260905164530 93 94 1.0 5.0 0.00 0.00 0.00 52 992.3
20260905163027 91 293 2.0 5.0 0.00 0.00 0.00 54 992.3
20260905161523 91 95 1.0 4.0 0.00 0.00 0.00 55 992.3
20260905160022 90 176 1.0 6.0 0.00 0.00 0.00 56 992.3
20260905154516 90 270 1.0 6.0 0.00 0.00 0.00 58 992.3
20260905153017 89 243 0.0 3.0 0.00 0.00 0.00 59 992.3
20260905151511 88 311 1.0 5.0 0.00 0.00 0.00 62 992.3
20260905150008 87 240 2.0 4.0 0.00 0.00 0.00 63 992.1
20260905144505 86 240 3.0 6.0 0.00 0.00 0.00 65 992.1
20260905143002 85 160 2.0 5.0 0.00 0.00 0.00 68 992.2
20260905141628 84 232 1.0 5.0 0.00 0.00 0.00 70 992.1
20260905140057 83 236 1.0 3.0 0.00 0.00 0.00 72 992.1
20260905134553 82 231 1.0 3.0 0.00 0.00 0.00 75 992.0
20260905133052 81 110 0.0 3.0 0.00 0.00 0.00 76 992.0
20260905131600 80 177 0.0 2.0 0.00 0.00 0.00 77 991.8
20260905130046 80 129 0.0 2.0 0.00 0.00 0.00 78 991.6
20260905124550 80 129 0.0 0.0 0.00 0.00 0.00 78 991.7
20260905123054 80 129 0.0 0.0 0.00 0.00 0.00 78 991.4
20260905121540 80 129 0.0 0.0 0.00 0.00 0.00 77 991.1
20260905120039 80 129 0.0 0.0 0.00 0.00 0.00 76 991.2
20260905114542 80 129 0.0 0.0 0.00 0.00 0.00 76 991.1
20260905113041 80 129 0.0 0.0 0.00 0.00 0.00 75 991.0
20260905111546 81 129 0.0 2.0 0.00 0.00 0.00 75 990.9
20260905110032 81 216 0.0 0.0 0.00 0.00 0.00 75 991.1
20260905104531 81 216 0.0 1.0 0.00 0.00 0.00 74 991.2
20260905103032 82 216 0.0 1.0 0.00 0.00 0.00 73 991.2
20260905101537 82 216 0.0 1.0 0.00 0.00 0.00 72 991.2
20260905100027 82 216 0.0 2.0 0.00 0.00 0.00 72 991.2
20260905094525 82 216 0.0 2.0 0.00 0.00 0.00 72 991.1
20260905093023 83 215 0.0 1.0 0.00 0.00 0.00 71 990.9
20260905091522 83 215 0.0 1.0 0.00 0.00 0.00 70 990.8
20260905090026 83 215 0.0 2.0 0.00 0.00 0.00 70 990.8
20260905084546 84 215 0.0 2.0 0.00 0.00 0.00 69 990.8
20260905083020 84 49 0.0 2.0 0.00 0.00 0.00 68 990.8
20260905081516 84 200 0.0 4.0 0.00 0.00 0.00 67 990.7
20260905080013 84 240 0.0 4.0 0.00 0.00 0.00 66 990.7
20260905074511 85 260 1.0 5.0 0.00 0.00 0.00 65 990.6
20260905073015 85 192 0.0 4.0 0.00 0.00 0.00 65 990.8
20260905071508 85 210 1.0 6.0 0.00 0.00 0.00 64 990.9
20260905070007 86 194 0.0 4.0 0.00 0.00 0.00 64 990.9
20260905064505 86 208 0.0 2.0 0.00 0.00 0.00 63 991.0
20260905063006 86 216 0.0 4.0 0.00 0.00 0.00 62 990.9
20260905061503 86 227 2.0 5.0 0.00 0.00 0.00 62 991.0
20260905060003 87 199 1.0 4.0 0.00 0.00 0.00 61 990.9
20260905054603 87 105 0.0 6.0 0.00 0.00 0.00 61 990.9
20260905053109 87 125 1.0 5.0 0.00 0.00 0.00 60 990.7
20260905051555 88 188 3.0 6.0 0.00 0.00 0.00 59 990.7
20260905050052 88 189 1.0 4.0 0.00 0.00 0.00 59 990.7
20260905044552 88 228 1.0 5.0 0.00 0.00 0.00 58 990.7
20260905043055 89 212 2.0 5.0 0.00 0.00 0.00 57 990.6
20260905041552 89 158 1.0 9.0 0.00 0.00 0.00 56 990.6
20260905040051 90 167 2.0 7.0 0.00 0.00 0.00 55 990.6
20260905034551 90 122 2.0 8.0 0.00 0.00 0.00 52 990.8
20260905033054 91 159 1.0 4.0 0.00 0.00 0.00 50 990.7
20260905031553 91 129 2.0 6.0 0.00 0.00 0.00 49 990.5
20260905030054 91 141 1.0 5.0 0.00 0.00 0.00 49 990.4